User: anonymous   Login
Location: Unspecified
(0.0000°N, 0.0000°E)
Time: 01:49:55
(UTC+00:00)
Language:

SMS 2 - Orbit

View from above orbital plane
View from above orbital plane
View from above satellite
View from above satellite

Ground track
Ground track

The orbit data is extracted from the following two-line orbital elements,

1  7648U 75011A   19138.89813887 -.00000312 +00000-0 +00000-0 0  9990
2  7648 011.5531 313.3760 0009434 190.6098 175.5378 00.99511088109949
Epoch (UTC): 18 May 2019 21:33:19
Eccentricity: 0.0009434
inclination: 11.5531°
perigee height: 35961 km
apogee height: 36041 km
right ascension of ascending node: 313.3760°
argument of perigee: 190.6098°
revolutions per day: 0.99511088
mean anomaly at epoch: 175.5378°
orbit number at epoch: 10994

The dashed part of the orbit path shows where the satellite is in the earth's shadow,  

DLR